Showing default

GALAXY 32, 54244

Orbit data source: Space-Track

GALAXY 32, 54244 is a payload satellite owned by Intelsat SA (US) (US) in GEO that was launched on Sat, 12 Nov 2022 UTC via an FALCON 9 launch vehicle from the Air Force Eastern Test Range (AFETR). Payload-class satellites include a variety of spacecraft equipped with specific instruments for various scientific and technological missions. These include communications satellites like Starlink; space stations such as the ISS; scientific satellites like the Hubble; Earth observation satellites from companies like Planet Labs, Umbra, and HawkEye 360; GPS; miniature CubeSats for education and research; and military/defense satellites.

Loading next visibility...
Identifier
54244, 2022-153B
Orbit
GEO
Country
Flag of USUS
Related business
Manufacturer
Maxar Space Sol
Mission
Operational Commercial Communications
Bus & Motor
SSL-1300, R-4D
Mass
3,300 kg wet, ~2,000 kg dry
Launch date (UTC)
2022-11-12 (3 years ago)
Launch vehicle
FALCON 9
Launch site
Air Force Eastern Test Range (AFETR)
Object type
Payload
Rocket body
Debris
Shape & HBR
Box + 2 Pan, 13.5 m
Radar Cross Section
36.085 m², Large (>1 m²)

Expand to show TLE details & history
Last TLE update: 10 hours ago

TLE from 10 hours ago
0 GALAXY 32
1 54244U 22153B   25260.85012405  .00000000  00000-0  00000-0 0  9992
2 54244   0.0208 148.1904 0000286 148.6123 275.2665  1.00269397 10415
Epoch: 2025-09-17T20:24Z
TLE epoch observation values (Epoch: 2025-09-17T20:24:10.717Z)
Latitude
0.03846°
Longitude
-90.99706°
Altitude
35,786.645 km
Speed
3.075 km/s
True Right ascension
14h 08m 16s
True Declination
0° 02' 18"
Sunlit
Object was in daylight at epoch
Visualization orbit readout
Latitude
Unknown
Longitude
Unknown
Altitude
Unknown
Speed
Unknown
Apparent Right ascension
Unknown
Apparent Declination
Unknown
Sunlit
N/A
Visualization observer readout
Local Sidereal Time
23:32:36
Azimuth
Unknown
Elevation
Unknown
Doppler factor
Unknown
Orbital elements
Apogee altitude
35,789.541 km
Perigee altitude
35,787.129 km
Semi-major axis
42,166.472 km
Eccentricity
0.00003
Inclination
0.0208°
RAAN
148.1904°
Arg. of periapsis
148.6123°
True anomaly
275.26324°
Mean anomaly
275.2665°
Eccentric anomaly
275.26487°
Mean motion
0.25066 °/min
Orbital period
1,436.18 mins
BSTAR
0
Loading maneuver chart data...
Computing Atmospheric mass density...
Loading historical data...
Loading historical data...
Loading historical data...
Loading historical data...
Loading historical data...
Loading historical data...
Loading historical data...
Other satellites on launch #153 in the year 2022 (2022-11-12 UTC)

Documentation

Showing up to 5 results
|